This demonstration page uses our WeatherBlox Daily Observations layout. Learn more.

36.17497, -115.13722

Hourly Observations for July 1, 2015

Temp ( °F °C ) Dew Point ( °F °C ) Humidity (%) Winds ( mph kmh ) Pressure ( in mb ) Visibility ( mi km ) Precip ( " mm )
12:53 am 00:53 Clear 98 36.7 57 13.9 25 25 NNE 7 11 29.71 1006 10 16.0934 0 0
1:53 am 01:53 Clear 96 35.6 57 13.9 27 27 ENE 5 7 29.72 1007 10 16.0934 0 0
2:53 am 02:53 Clear 94 34.4 55 12.8 27 27 S 18 30 29.77 1008 8 12.87472 0 0
3:53 am 03:53 Clear 89 31.7 59 15 36 36 SW 22 35 29.79 1009 10 16.0934 0 0
4:53 am 04:53 Clear 90 32.2 56 13.3 32 32 WSW 24 39 29.82 1010 10 16.0934 0 0
5:53 am 05:53 Sunny 89 31.7 56 13.3 33 33 WSW 16 26 29.84 1010 10 16.0934 0 0
6:53 am 06:53 Sunny 90 32.2 58 14.4 34 34 NW 6 9 29.85 1011 10 16.0934 0 0
7:53 am 07:53 Sunny 93 33.9 56 13.3 29 29 NNW 23 37 29.84 1011 10 16.0934 0 0
8:53 am 08:53 Sunny 95 35 56 13.3 27 27 NNW 22 35 29.85 1011 10 16.0934 0 0
9:53 am 09:53 Sunny 98 36.7 55 12.8 24 24 N 21 33 29.84 1011 10 16.0934 0 0
10:53 am 10:53 Sunny 99 37.2 56 13.3 24 24 N 9 15 29.85 1011 10 16.0934 0 0
11:53 am 11:53 Sunny 100 37.8 56 13.3 23 23 Calm 29.84 1010 10 16.0934 0 0
12:53 pm 12:53 Sunny 102 38.9 55 12.8 21 21 Calm 29.82 1010 10 16.0934 0 0
1:53 pm 13:53 Sunny 104 40 54 12.2 19 19 W 8 13 29.8 1009 10 16.0934 0 0
2:53 pm 14:53 Sunny 105 40.6 55 12.8 19 19 undefined N/A 29.77 1008 10 16.0934 0 0
3:53 pm 15:53 Sunny 106 41.1 55 12.8 19 19 W 14 22 29.74 1007 10 16.0934 0 0
4:53 pm 16:53 Sunny 109 43 48 9 13 13 VRB 5 7 29.47 998 10 16.0934 0 0
5:53 pm 17:53 Sunny 104 40 56 13.3 20 20 SW 17 28 29.71 1006 10 16.0934 0 0
6:53 pm 18:53 Sunny 103 39.4 54 12.2 20 20 SW 14 22 29.72 1007 10 16.0934 0 0
7:53 pm 19:53 Sunny 101 38.3 54 12.2 21 21 SSW 9 15 29.75 1007 10 16.0934 0 0
8:53 pm 20:53 Clear 101 38.3 54 12.2 21 21 WNW 7 11 29.75 1007 10 16.0934 0 0.0254
9:53 pm 21:53 Clear 98 36.7 54 12.2 23 23 SSE 6 9 29.77 1008 10 16.0934 0 0
10:53 pm 22:53 Clear 93 33.9 58 14.4 31 31 NE 21 33 29.8 1009 10 16.0934 0 0
11:53 pm 23:53 Clear 91 32.8 56 13.3 31 31 NE 18 30 29.82 1010 10 16.0934 0 0

Powered by AerisWeather